Date String (YYYY-MM-DD hh:mm:ss) UTC,Instrument flags,Ambient pressure (hPa),Sample flow (lpm),Bypass flow (lpm),Sample temperature (°C),Ambient temperature (°C),ASC tube jacket temperature (°C),LED temperature (°C),Box temperature (°C),Sample RH (%),Span deviation,Mass concentration (μg/m³),Mass concentration (μg/m³),Mass concentration (μg/m³)
DateTimeUTC,F1_M11,P_M11,Q1_M11,Q2_M11,T1_M11,T2_M11,T3_M11,T4_M11,T5_M11,U1_M11,ZSPAN_M11,X0_M11,X2_M11,X1_M11
2021-09-12 22:00:00,,0830.1,5.00,0.00,30.7,28.8,00.0,38.6,31.7,29.1,0001.9,0012.04,0006.09,0004.75
2021-09-12 22:01:00,,0830.1,4.99,0.00,30.7,27.8,00.0,38.7,31.4,30.1,0001.7,0011.56,0006.04,0004.75
2021-09-12 22:02:00,,0830.1,5.00,0.00,30.6,26.2,00.0,38.8,31.0,32.7,0001.6,0011.20,0005.99,0004.74
2021-09-12 22:03:00,,0830.1,4.99,0.00,30.4,25.7,00.0,38.8,30.8,32.6,0002.2,0010.89,0005.91,0004.74
2021-09-12 22:04:00,,0830.1,5.00,0.00,30.3,26.0,00.0,38.8,30.8,31.8,0002.4,0010.61,0005.84,0004.74
2021-09-12 22:05:00,,0830.1,5.01,0.00,30.2,26.5,00.0,38.8,30.9,32.0,0002.8,0011.02,0005.81,0004.73
2021-09-12 22:06:00,,0830.0,5.00,0.00,30.2,26.9,00.0,38.8,31.1,32.2,0003.1,0010.74,0005.71,0004.71
2021-09-12 22:07:00,,0830.0,5.01,0.00,30.2,27.4,00.0,38.8,31.2,32.8,0003.1,0010.60,0005.64,0004.68
2021-09-12 22:08:00,,0830.0,4.99,0.00,30.2,27.7,00.0,38.9,31.3,33.2,0002.9,0010.36,0005.54,0004.66
2021-09-12 22:09:00,,0829.9,5.01,0.00,30.2,28.0,00.0,38.9,31.4,34.8,0002.3,0010.30,0005.54,0004.66
2021-09-12 22:10:00,,0829.9,4.99,0.00,30.4,28.3,00.0,38.9,31.5,35.3,0002.6,0010.39,0005.57,0004.66
2021-09-12 22:11:00,,0829.9,5.00,0.00,30.6,28.5,00.0,38.9,31.7,34.5,0002.8,0009.92,0005.54,0004.63
2021-09-12 22:12:00,,0829.9,5.00,0.00,30.8,28.7,00.0,39.0,31.8,33.9,0002.9,0009.72,0005.50,0004.60
2021-09-12 22:13:00,,0829.9,5.00,0.00,30.9,28.8,00.0,39.0,31.9,32.8,0003.0,0009.78,0005.48,0004.59
2021-09-12 22:14:00,,0829.8,5.01,0.00,31.0,28.5,00.0,39.1,31.8,32.7,0003.0,0010.21,0005.53,0004.56
2021-09-12 22:15:00,,0829.8,4.99,0.00,30.9,26.8,00.0,39.1,31.3,32.5,0002.2,0010.28,0005.54,0004.54
2021-09-12 22:16:00,,0829.8,5.01,0.00,30.7,25.8,00.0,39.1,31.1,32.3,0001.7,0009.87,0005.54,0004.53
2021-09-12 22:17:00,,0829.8,5.00,0.00,30.6,25.9,00.0,39.2,31.1,32.1,0001.4,0010.35,0005.55,0004.53
2021-09-12 22:18:00,,0829.8,5.00,0.00,30.5,26.4,00.0,39.1,31.1,31.3,0001.4,0010.38,0005.50,0004.52
2021-09-12 22:19:00,,0829.8,5.00,0.00,30.5,26.9,00.0,39.1,31.2,32.2,0000.9,0010.40,0005.51,0004.50
2021-09-12 22:20:00,,0829.8,4.99,0.00,30.5,27.3,00.0,39.1,31.3,32.4,0001.5,0010.45,0005.53,0004.49
2021-09-12 22:21:00,,0829.9,5.00,0.00,30.5,27.7,00.0,39.1,31.4,34.5,0001.2,0010.37,0005.50,0004.49
2021-09-12 22:22:00,,0829.8,5.01,0.00,30.5,28.0,00.0,39.2,31.6,35.0,0000.8,0010.27,0005.47,0004.49
2021-09-12 22:23:00,,0829.9,4.99,0.00,30.7,28.3,00.0,39.2,31.7,33.7,0000.3,0010.23,0005.43,0004.47
2021-09-12 22:24:00,,0829.8,4.99,0.00,30.8,28.5,00.0,39.2,31.8,34.1,0000.2,0010.67,0005.39,0004.44
2021-09-12 22:25:00,,0829.8,5.01,0.00,30.8,28.7,00.0,39.2,31.8,33.2,0000.1,0010.51,0005.35,0004.42
2021-09-12 22:26:00,,0829.8,4.99,0.00,30.9,28.7,00.0,39.3,31.8,30.6,0000.0,0010.44,0005.28,0004.40
2021-09-12 22:27:00,,0829.8,5.01,0.00,30.8,27.1,00.0,39.3,31.4,30.1,0000.0,0010.44,0005.25,0004.37
2021-09-12 22:28:00,,0829.7,4.98,0.00,30.6,25.9,00.0,39.3,31.0,30.7,0000.0,0009.96,0005.25,0004.36
2021-09-12 22:29:00,,0829.7,5.02,0.00,30.5,25.8,00.0,39.3,31.0,30.5,0000.0,0009.91,0005.29,0004.36
2021-09-12 22:30:00,,0829.7,5.00,0.00,30.4,26.2,00.0,39.3,31.1,29.8,0000.0,0009.94,0005.29,0004.36
2021-09-12 22:31:00,,0829.7,4.99,0.00,30.4,26.7,00.0,39.2,31.2,31.5,0000.0,0009.87,0005.25,0004.35
2021-09-12 22:32:00,,0829.7,5.00,0.00,30.4,27.2,00.0,39.2,31.3,32.1,0000.0,0009.75,0005.22,0004.33
2021-09-12 22:33:00,,0829.7,5.00,0.00,30.4,27.6,00.0,39.2,31.4,34.8,0000.0,0009.72,0005.21,0004.33
2021-09-12 22:34:00,,0829.7,4.99,0.00,30.4,27.9,00.0,39.2,31.5,34.0,0000.0,0009.69,0005.21,0004.35
2021-09-12 22:35:00,,0829.7,4.99,0.00,30.5,28.2,00.0,39.2,31.6,32.9,0000.0,0009.14,0005.22,0004.37
2021-09-12 22:36:00,,0829.6,5.01,0.00,30.5,28.4,00.0,39.2,31.7,33.6,0000.0,0008.95,0005.22,0004.39
2021-09-12 22:37:00,,0829.6,5.00,0.00,30.6,28.6,00.0,39.2,31.7,33.7,0000.0,0008.90,0005.27,0004.42
2021-09-12 22:38:00,,0829.6,5.01,0.00,30.6,28.8,00.0,39.2,31.7,34.3,0000.0,0008.92,0005.28,0004.43
2021-09-12 22:39:00,,0829.6,5.00,0.00,30.6,27.6,00.0,39.2,31.5,34.0,0000.5,0008.93,0005.29,0004.43
2021-09-12 22:40:00,,0829.5,4.99,0.00,30.4,26.1,00.0,39.2,31.0,34.1,0001.4,0008.94,0005.29,0004.43
2021-09-12 22:41:00,,0829.5,4.99,0.00,30.3,25.8,00.0,39.2,30.9,34.2,0001.5,0008.97,0005.30,0004.45
2021-09-12 22:42:00,,0829.5,5.02,0.00,30.2,26.1,00.0,39.2,31.0,35.1,0001.1,0009.09,0005.35,0004.45
2021-09-12 22:43:00,,0829.6,4.99,0.00,30.3,26.6,00.0,39.1,31.2,34.8,0000.9,0009.01,0005.31,0004.44
2021-09-12 22:44:00,,0829.6,5.01,0.00,30.5,27.1,00.0,39.1,31.4,33.7,0000.7,0009.08,0005.35,0004.45
2021-09-12 22:45:00,,0829.6,5.00,0.00,30.6,27.5,00.0,39.1,31.5,33.5,0000.7,0009.26,0005.39,0004.45
2021-09-12 22:46:00,,0829.6,5.00,0.00,30.6,27.8,00.0,39.1,31.5,32.0,0000.1,0009.31,0005.41,0004.43
2021-09-12 22:47:00,,0829.6,5.00,0.00,30.7,28.1,00.0,39.1,31.6,30.8,0000.0,0009.32,0005.40,0004.42
2021-09-12 22:48:00,,0829.6,5.00,0.00,30.7,28.4,00.0,39.2,31.7,33.2,-000.1,0009.32,0005.37,0004.40
2021-09-12 22:49:00,,0829.6,4.99,0.00,30.7,28.6,00.0,39.2,31.7,33.7,-000.3,0009.38,0005.40,0004.40
2021-09-12 22:50:00,,0829.9,5.01,0.00,30.8,28.8,00.0,39.3,31.8,32.9,0000.1,0009.46,0005.41,0004.41
2021-09-12 22:51:00,,0829.6,4.99,0.00,30.8,28.8,00.0,39.3,31.8,32.3,0000.7,0009.82,0005.41,0004.41
2021-09-12 22:52:00,,0829.6,5.00,0.00,30.7,27.4,00.0,39.3,31.4,33.0,0000.6,0010.10,0005.38,0004.41
2021-09-12 22:53:00,,0829.6,4.99,0.00,30.6,26.1,00.0,39.3,31.1,32.8,0000.9,0009.99,0005.35,0004.43
2021-09-12 22:54:00,,0829.7,5.02,0.00,30.4,25.9,00.0,39.3,31.1,32.9,0001.4,0010.29,0005.37,0004.43
2021-09-12 22:55:00,,0829.7,4.99,0.00,30.3,26.3,00.0,39.3,31.1,32.3,0002.0,0010.49,0005.38,0004.44
2021-09-12 22:56:00,,0829.6,5.01,0.00,30.3,26.8,00.0,39.2,31.2,28.9,0002.0,0010.40,0005.36,0004.44
2021-09-12 22:57:00,,0829.6,5.01,0.00,30.2,27.3,00.0,39.2,31.3,28.8,0002.1,0010.41,0005.36,0004.46
2021-09-12 22:58:00,,0829.7,5.00,0.00,30.3,27.7,00.0,39.2,31.4,31.4,0001.8,0010.48,0005.39,0004.48
2021-09-12 22:59:00,,0829.6,5.01,0.00,30.3,28.0,00.0,39.2,31.5,30.2,0002.4,0010.46,0005.42,0004.50
